Chicago Midway, IL

12:40 AM CDT on May 28, 2018 (GMT -0500)
Chicago-Midway

Weather History for KMDW - April, 2014

Change the Weather History Date:

Friday, April 25, 2014

  Actual Average Record
Temperature  
Mean Temperature 58 °F 54 °F  
Max Temperature 69 °F 63 °F 89 °F (1990)
Min Temperature 47 °F 45 °F 27 °F (1934)
Degree Days  
Heating Degree Days 7 12  
Month to date heating degree days 386 397  
Since 1 July heating degree days 6585 5720  
Cooling Degree Days 0 1  
Month to date cooling degree days 5 7  
Year to date cooling degree days 5 8  
Growing Degree Days 8 (Base 50)    
Moisture  
Dew Point 41 °F    
Average Humidity 59    
Maximum Humidity 96    
Minimum Humidity 19    
Precipitation  
Precipitation 0.24 in 0.12 in 1.62 in (1976)
Month to date precipitation 2.50 3.00  
Year to date precipitation 6.08 9.72  
Sea Level Pressure  
Sea Level Pressure 29.74 in    
Wind  
Wind Speed 11 mph (NW)    
Max Wind Speed 25 mph    
Max Gust Speed 31 mph    
Visibility 9 miles    
Events Rain    
T = Trace of Precipitation, MM = Missing Value Source: NWS Daily Summary

Daily Weather History Graph

Daily Weather History Graph

Search for Another Location

Airport or City:

Astronomy

Apr. 25, 2014 Rise Set
Actual Time 5:55 AM CDT 7:42 PM CDT
Civil Twilight 5:25 AM CDT 8:12 PM CDT
Nautical Twilight 4:49 AM CDT 8:48 PM CDT
Astronomical Twilight 4:11 AM CDT 9:28 PM CDT
Moon 3:47 AM CDT (4/25) 4:01 PM CDT (4/25)
Length of Visible Light 14h 46m
Length of Day
13h 47m
Waning Crescent, 15% of the Moon is Illuminated
Apr 25
Waning Crescent
Apr 29
New
May 6
First Quarter
May 14
Full
May 21
Last Quarter

Hourly Weather History & Observations

Time (CDT) Temp. Dew Point Humidity Pressure Visibility Wind Dir Wind Speed Gust Speed Precip Events Conditions
12:51 AM 55.9 °F 36.0 °F 47% 29.63 in 10.0 mi SE 9.2 mph - 0.00 in Rain Light Rain
1:51 AM 52.0 °F 43.0 °F 71% 29.63 in 8.0 mi SSE 3.5 mph - 0.06 in Rain Light Rain
2:25 AM 50.0 °F 45.0 °F 83% 29.64 in 5.0 mi Calm Calm - 0.07 in Rain Light Rain
2:51 AM 50.0 °F 46.9 °F 89% 29.64 in 6.0 mi North 5.8 mph - 0.14 in Rain Rain
3:29 AM 48.9 °F 46.9 °F 93% 29.61 in 10.0 mi ENE 8.1 mph - 0.04 in Rain Light Rain
3:51 AM 48.9 °F 46.9 °F 93% 29.64 in 9.0 mi NNW 5.8 mph - 0.04 in Rain Light Rain
4:13 AM 50.0 °F 46.9 °F 89% 29.64 in 10.0 mi NNE 4.6 mph - 0.00 in   Overcast
4:42 AM 48.0 °F 46.9 °F 96% 29.65 in 7.0 mi North 10.4 mph - 0.00 in   Overcast
4:51 AM 48.0 °F 46.0 °F 93% 29.65 in 7.0 mi North 10.4 mph - 0.00 in   Overcast
5:51 AM 46.9 °F 44.1 °F 90% 29.68 in 7.0 mi North 3.5 mph - N/A   Overcast
6:51 AM 48.0 °F 45.0 °F 89% 29.72 in 10.0 mi NW 8.1 mph - N/A   Overcast
7:51 AM 48.9 °F 44.1 °F 83% 29.76 in 10.0 mi NNW 15.0 mph - N/A   Overcast
8:34 AM 50.0 °F 44.1 °F 80% 29.77 in 10.0 mi NW 13.8 mph - N/A   Overcast
8:51 AM 50.0 °F 44.1 °F 80% 29.78 in 10.0 mi NW 16.1 mph 24.2 mph N/A   Mostly Cloudy
9:51 AM 55.4 °F 44.6 °F 67% 29.79 in 10.0 mi NW 15.0 mph - N/A   Mostly Cloudy
10:51 AM 57.0 °F 43.0 °F 59% 29.80 in 10.0 mi WNW 11.5 mph - N/A   Scattered Clouds
11:51 AM 60.1 °F 41.0 °F 49% 29.81 in 10.0 mi NW 12.7 mph 21.9 mph N/A   Partly Cloudy
12:51 PM 64.0 °F 37.9 °F 38% 29.81 in 10.0 mi WNW 16.1 mph 27.6 mph N/A   Partly Cloudy
1:51 PM 66.0 °F 39.9 °F 38% 29.81 in 10.0 mi West 18.4 mph 24.2 mph N/A   Partly Cloudy
2:51 PM 68.0 °F 39.0 °F 35% 29.80 in 10.0 mi West 17.3 mph 25.3 mph N/A   Scattered Clouds
3:51 PM 69.1 °F 36.0 °F 30% 29.79 in 10.0 mi WNW 21.9 mph 29.9 mph N/A   Partly Cloudy
4:51 PM 68.0 °F 36.0 °F 31% 29.78 in 10.0 mi WNW 17.3 mph 31.1 mph N/A   Scattered Clouds
5:51 PM 69.1 °F 39.9 °F 35% 29.78 in 10.0 mi West 16.1 mph 25.3 mph N/A   Scattered Clouds
6:51 PM 68.0 °F 36.0 °F 31% 29.78 in 10.0 mi WNW 16.1 mph - N/A   Scattered Clouds
7:51 PM 66.9 °F 35.1 °F 31% 29.80 in 10.0 mi WNW 11.5 mph - N/A   Scattered Clouds
8:51 PM 64.9 °F 35.1 °F 33% 29.82 in 10.0 mi West 6.9 mph - N/A   Partly Cloudy
9:51 PM 62.6 °F 35.6 °F 37% 29.83 in 10.0 mi NW 5.8 mph - N/A   Mostly Cloudy
10:51 PM 62.1 °F 36.0 °F 38% 29.83 in 10.0 mi West 4.6 mph - N/A   Mostly Cloudy
11:51 PM 61.0 °F 35.1 °F 38% 29.83 in 10.0 mi West 4.6 mph - N/A   Overcast